TimeEDT,TemperatureF,Dew PointF,Humidity,Sea Level PressureIn,VisibilityMPH,Wind Direction,Wind SpeedMPH,Gust SpeedMPH,PrecipitationIn,Events,Conditions,WindDirDegrees,DateUTC
12:54 AM,44.1,21.0,40,29.77,10.0,South,9.2,-,N/A,,Mostly Cloudy,180,2013-03-21 04:54:00
1:54 AM,39.2,21.2,49,29.72,10.0,SSW,6.9,-,N/A,,Scattered Clouds,200,2013-03-21 05:54:00
2:54 AM,43.0,21.9,43,29.73,10.0,North,19.6,25.3,N/A,,Partly Cloudy,10,2013-03-21 06:54:00
3:54 AM,39.9,25.0,55,29.76,10.0,North,15.0,-,N/A,,Scattered Clouds,360,2013-03-21 07:54:00
4:54 AM,37.9,26.1,62,29.77,10.0,North,13.8,21.9,N/A,,Overcast,350,2013-03-21 08:54:00
5:54 AM,36.0,25.0,64,29.79,10.0,North,17.3,-,N/A,,Mostly Cloudy,360,2013-03-21 09:54:00
6:54 AM,35.1,24.1,64,29.80,10.0,North,11.5,-,N/A,,Mostly Cloudy,360,2013-03-21 10:54:00
7:54 AM,35.1,25.0,67,29.81,9.0,NNW,19.6,24.2,0.00,Snow,Light Snow,340,2013-03-21 11:54:00
8:18 AM,33.8,26.6,75,29.80,1.8,North,19.6,25.3,0.00,Snow,Light Snow,350,2013-03-21 12:18:00
8:21 AM,32.0,26.6,80,29.80,1.2,NNW,18.4,-,0.00,Snow,Light Snow,340,2013-03-21 12:21:00
8:54 AM,32.0,28.0,85,29.82,1.0,North,15.0,-,0.00,Snow,Light Snow,360,2013-03-21 12:54:00
9:02 AM,30.2,28.4,93,29.79,0.8,North,12.7,-,0.01,Snow,Light Snow,10,2013-03-21 13:02:00
9:13 AM,32.0,28.4,87,29.79,1.0,North,11.5,-,0.01,Snow,Light Snow,10,2013-03-21 13:13:00
9:23 AM,32.0,28.4,87,29.80,2.0,North,16.1,20.7,0.01,Snow,Light Snow,360,2013-03-21 13:23:00
9:30 AM,32.0,28.4,87,29.80,3.0,North,11.5,20.7,0.01,Snow,Light Snow,360,2013-03-21 13:30:00
9:54 AM,33.1,28.0,82,29.82,8.0,North,12.7,-,0.01,Snow,Light Snow,10,2013-03-21 13:54:00
10:54 AM,36.0,24.1,62,29.81,10.0,North,12.7,-,0.00,,Overcast,360,2013-03-21 14:54:00
11:54 AM,37.9,18.0,45,29.81,10.0,North,15.0,-,N/A,,Overcast,10,2013-03-21 15:54:00
12:54 PM,39.0,18.0,43,29.80,10.0,NNW,10.4,18.4,N/A,,Mostly Cloudy,330,2013-03-21 16:54:00
1:54 PM,39.0,17.1,41,29.78,10.0,NNW,12.7,-,N/A,,Overcast,340,2013-03-21 17:54:00
2:54 PM,39.9,18.0,41,29.77,10.0,NNW,17.3,24.2,N/A,,Overcast,340,2013-03-21 18:54:00
3:54 PM,43.0,12.9,30,29.76,10.0,North,10.4,-,N/A,,Overcast,350,2013-03-21 19:54:00
4:54 PM,41.0,8.1,26,29.78,10.0,NNW,19.6,27.6,N/A,,Mostly Cloudy,330,2013-03-21 20:54:00
5:54 PM,39.9,10.0,29,29.81,10.0,NW,20.7,29.9,N/A,,Mostly Cloudy,320,2013-03-21 21:54:00
6:54 PM,37.0,10.0,33,29.84,10.0,NNW,17.3,23.0,N/A,,Scattered Clouds,340,2013-03-21 22:54:00
7:54 PM,36.0,8.1,31,29.87,10.0,NW,13.8,21.9,N/A,,Partly Cloudy,310,2013-03-21 23:54:00
8:54 PM,34.0,9.0,35,29.90,10.0,NW,15.0,-,N/A,,Partly Cloudy,320,2013-03-22 00:54:00
9:54 PM,33.1,9.0,37,29.94,10.0,NNW,10.4,-,N/A,,Partly Cloudy,330,2013-03-22 01:54:00
10:54 PM,32.0,9.0,38,29.95,10.0,NNW,11.5,-,N/A,,Clear,330,2013-03-22 02:54:00
11:54 PM,30.0,10.0,43,29.96,10.0,NW,5.8,-,N/A,,Clear,310,2013-03-22 03:54:00